Find Starlink 31313

NORAD ID: 59088 Int'l Des: 2024-041 Owner: SPXS Country: US Constellation: starlink operational
LEOCIRCULAR

Live-Position

3D-Globus wird geladen...

Über Starlink 31313

Beschreibung wird geladen...

Nächste Überflüge

Passes for default location (London). Set your location on the main map for personalized predictions.

Höhenverlauf

Loading altitude history...

Zweizeiliger Elementsatz

1 59088U 24041Q 26107.01037398 .00000033 00000-0 10724-4 0 9992
2 59088 43.0032 94.1623 0001048 285.4735 74.6001 15.27577139120138
Epoch: 17. Apr. 2026 • Age: 19 hours

Aktueller Status

Höhe 482.0 km
Geschwindigkeit 7.63 km/s
Subsatellitenpunkt 12.00°N, 30.47°W
Startdatum 29. Feb. 2024
Alter 2.1 years
Typ internet

Technische Details

Klassifizierung Payload
Masse 730.00 kg
Trockenmasse 700.00 kg
Gesamtmasse 730.00 kg
Länge 0.30 m
Durchmesser 4.10 m
Spannweite 29.00 m
Form Box + pan
Hersteller SPXS
Bus-Typ Starlink V2M
Phasenstatus In Orbit
Besitzer/Staat SPXS/US

Most Searched